www.pogodaiklimat.ru

АРХИВ ПОГОДЫ в Лас-Вегасе

Время (UTC), дата Ветер
(напр.,м/с)
 
Видим.   Явления Облачность Т
(С)
Тd
(С)
f
(%)
Тe
(С)
Тes
(С)
Комфортность

P
(гПа)

Po
(гПа)
Тmin
(С)
Tmax
(С)
R
(мм)
SD
(см)
03:56 20.09 Ю  16 км  пыль  ясно  +24.4  -1.1  18  +23  +23  комфорт  1005.4  930.8         
04:02 20.09 С  16 км  пыль  ясно  +23.9  -1.1  19  +23  +23  комфорт    930.8         
04:56 20.09 СЗ  16 км  пыль  ясно  +23.3  -0.6  20  +22  +22  комфорт  1005.8  931.1  +23.3  +30.0     
05:56 20.09 С  16 км    ясно  +22.8  -1.1  20  +22  +22  комфорт  1006.2  931.4         
06:56 20.09 СЗ  16 км    ясно  +21.7  -0.6  23  +21  +21  комфорт  1006.7  932.0         
07:56 20.09 З  16 км    ясно  +21.1  -1.1  23  +21  +21  комфорт  1007.3  932.4         
08:56 20.09 Ю  16 км    ясно  +20.0  -1.7  23  +20  +20    1007.3  932.4         
09:56 20.09 Ю  16 км    ясно  +19.4  -1.1  25  +20  +20    1007.7  932.7         
10:56 20.09 З  16 км    ясно  +18.9  -1.1  26  +19  +19    1008.4  933.3  +18.3  +23.3     
11:56 20.09 С  16 км    ясно  +19.4  -0.6  26  +19  +19    1009.0  933.9         
12:56 20.09 СЗ  16 км    ясно  +19.4  0.0  27  +19  +19    1009.6  934.5         
13:56 20.09 ЮЗ  16 км    ясно  +19.4  -0.6  26  +20  +20    1010.4  935.2         
14:56 20.09 З  16 км    ясно  +21.1  -0.6  23  +21  +22  комфорт  1011.2  935.8         
15:56 20.09 С  16 км    ясно  +23.3  +0.6  22  +22  +23  комфорт  1011.7  936.4         
16:56 20.09 С  16 км    ясно  +25.0  -0.6  18  +23  +27  комфорт  1011.9  936.4  +18.3  +25.0     
17:56 20.09 СВ  16 км    ясно  +25.6  -1.7  16  +24  +31  комфорт  1011.4  936.1         
18:56 20.09 нст  16 км    2/0 3600 м
[средняя] 
+25.6  -1.1  17  +24  +37  комфорт  1011.1  935.8         
19:56 20.09 нст  16 км    2/0 3600 м
[средняя] 
+26.7  -1.1  16  +24  +38  комфорт  1010.3  935.2         
20:56 20.09 нст  16 км    2/0 3600 м
[средняя] 
+27.2  -2.2  14  +25  +35  комфорт  1009.7  934.5         
21:56 20.09 СВ  16 км    ясно  +27.8  -1.7  14  +25  +36  комфорт  1009.5  934.2         
22:56 20.09 нст  16 км    2/0 3600 м
[средняя] 
+27.8  -1.7  14  +25  +30  комфорт  1009.4  933.9  +24.4  +28.3     
23:56 20.09 С  16 км    2/0 4500 м
[средняя] 
+28.3  -2.2  14  +26  +27  жарко  1009.0  933.9         
00:56 21.09 С  16 км    2/0 4500 м
[средняя] 
+26.7  -3.9  13  +24  +24  комфорт  1009.1  933.9         
01:56 21.09 С  16 км    ясно  +26.7  -6.1  11  +24  +24  комфорт  1009.5  934.2         
02:56 21.09 С  16 км    ясно  +26.1  -6.1  11  +23  +23  комфорт  1009.8  934.5         
03:56 21.09 З  16 км    ясно  +24.4  -4.4  14  +22  +22  комфорт  1010.3  934.9         
04:56 21.09 З  16 км    ясно  +23.3  -3.9  16  +21  +21  комфорт  1010.4  935.2  +22.8  +28.3     
05:56 21.09 З  16 км    ясно  +22.2  -3.3  18  +21  +21  комфорт  1010.7  935.5         
06:56 21.09 ЮЗ  16 км    ясно  +20.6  -3.9  19  +21  +21  комфорт  1011.2  935.8         
07:56 21.09 В  16 км    ясно  +20.0  -2.8  21  +20  +20    1011.5  936.1         
08:56 21.09   16 км    ясно  +20.0  -2.8  21  +20  +20    1011.6  936.1         
09:56 21.09 ЮЗ  16 км    ясно  +18.3  -2.8  24  +19  +19    1011.8  936.4         
10:56 21.09 ЮЗ  16 км    ясно  +17.8  -2.8  24  +18  +18    1012.1  936.7  +17.8  +23.3     
11:56 21.09 ЮЗ  16 км    ясно  +17.2  -3.3  24  +17  +17    1012.8  937.4         
12:56 21.09   16 км    2/0 5400 м
[средняя] 
+17.8  -3.3  24  +18  +18    1013.8  938.0         
13:56 21.09   16 км    2/0 4800 м
[средняя] 
+20.6  -2.8  21  +20  +20    1014.0  938.3         
14:56 21.09 СВ  16 км    2/0 4800 м
[средняя] 
+22.2  -2.8  19  +21  +22  комфорт  1014.6  938.9         
15:56 21.09 С  16 км    2/0 4800 м
[средняя] 
+23.9  -2.8  17  +22  +26  комфорт  1014.9  939.2         
16:56 21.09 нст  16 км    2/0 4800 м
[средняя] 
+25.6  -2.2  16  +24  +30  комфорт  1014.5  938.9  +17.2  +25.6     
17:56 21.09 нст  16 км    2/0 3600 м
[средняя] 
+26.1  -1.7  16  +24  +33  комфорт  1014.2  938.6         
18:56 21.09   16 км    ясно  +27.2  -1.7  15  +25  +44  комфорт  1013.3  937.7         
19:56 21.09   16 км    ясно  +28.3  -2.8  13  +25  +45  комфорт  1012.5  937.0         
20:56 21.09 З  16 км    ясно  +28.9  -2.8  12  +26  +36  жарко  1011.7  936.4         
21:56 21.09 В  16 км    ясно  +29.4  -3.3  12  +26  +35  жарко  1011.0  935.8         
22:56 21.09 СВ  16 км    ясно  +29.4  -3.3  12  +26  +31  жарко  1010.8  935.5  +25.0  +30.0     
23:56 21.09   16 км    ясно  +28.9  -3.3  12  +26  +29  жарко  1011.0  935.5         
00:56 22.09 В  16 км    ясно  +28.3  -3.3  12  +25  +26  комфорт  1011.1  935.8         
01:56 22.09   16 км    ясно  +27.8  -2.2  14  +25  +25  комфорт  1011.4  936.1         

 

Местоположение метеостанции McCarran International Airport: широта 36.0719 долгота -115.1634 высота над уровнем моря 664 м.

В архиве по умолчанию представлена погода в Лас-Вегасе за последние 1-2 суток. Обновление информации о фактической погоде в базе происходит ежечасно! Архивные данные за месяц целиком и за предыдущие месяцы Вы можете получить, выбрав интересующий диапазон дат из раскрывающегося списка и нажав кнопку "Ввод!".

Внимание! Архив погоды МЕТАР в базе сайта в настоящее время начинается c 1 января 2011 г. Нет смысла пытаться выбрать более раннюю дату.

Внимание! Время в таблицах - всемирное. Для получения местного времени необходимо прибавить поправку, которая в Лас-Вегасе равна -8 ч.

Ветер - указаны скорость ветра в м/с и направление, откуда дует ветер: С - северный, СВ - северо-восточный, В - восточный, ЮВ - юго-восточный, Ю - южный, ЮЗ - юго-западный, З - западный, СЗ - северо-западный.
Видимость - горизонтальная дальность видимости в метрах или километрах. При видимости от 1 до 10 км при отсутствии осадков обычно наблюдается дымка, при ухудшении видимости до 1 км и менее - туман. В сухую погоду видимость может ухудшаться дымом, пылью или мглою.
Атмосферные явления - указаны явления, наблюдавшиеся в указанный момент времени.
Облачность - указаны через наклонную черту верхняя и нижняя облачность в баллах и высота нижней границы облаков в метрах. Внимание: облачность, как и прочие метеорологические величины в США измеряются автоматическими метеостанциями. Указанные значения в баллах носят условный характер и показывают процент времени, в течение которого, в среднем, лазерный луч высотомера отражался от облаков обратно.
T - Температура воздуха - температура, измеренная на высоте 2 м над землей.
Td - Температура точки росы - температура, при понижении до которой содержащийся в воздухе водяной пар достигнет насыщения.
f - Относительная влажность воздуха - влажноcть воздуха, измеренная на высоте 2 м над землей.
Te - Эффективная температура - температура, которую ощущает одетый по сезону человек в тени. Характеристика душности погоды. При расчете учитывается влияние влажности воздуха и скорости ветра на теплоощущения человека.
Tes - Эффективная температура на солнце - температура, которую ощущает человек, с поправкой на солнечный нагрев. Характеристика знойности погоды. Зависит от высоты солнца над горизонтом, облачности и скорости ветра. Ночью, в пасмурную погоду, а также при ветре 12 м/с и более поправка равна нулю.
P - Атмосферное давление - приведенное к уровню моря атмосферное давление.
Po - Атмосферное давление - измеренное на уровне метеостанции атмосферное давление.
Tmin - Минимальная температура - минимум температуры воздуха на высоте 2 м над землей.
Tmax - Максимальная температура - максимум температуры воздуха на высоте 2 м над землей.
R - Количество осадков - Количество выпавших осадков за 3 или 6 часов, мм.
SD - Снежный покров - Высота снежного покрова, см.